Time,TemperatureF,DewpointF,PressureIn,WindDirection,WindDirectionDegrees,WindSpeedMPH,WindSpeedGustMPH,Humidity,HourlyPrecipIn,Conditions,Clouds,dailyrainin,SoftwareType,DateUTC
2013-12-05 00:04:00,63.9,61.2,30.04,SW,222,0.0,0.0,91,0.00,CLR,,0.00,WeatherDisplay:10.37,2013-12-05 06:04:00,
2013-12-05 00:09:00,63.9,61.2,30.03,SW,222,0.0,0.0,91,0.00,CLR,,0.00,WeatherDisplay:10.37,2013-12-05 06:09:00,
2013-12-05 00:14:00,63.9,61.2,30.03,SW,222,0.0,0.0,91,0.00,CLR,,0.00,WeatherDisplay:10.37,2013-12-05 06:14:00,
2013-12-05 00:19:00,63.9,61.2,30.03,SW,222,0.0,0.0,91,0.00,CLR,,0.00,WeatherDisplay:10.37,2013-12-05 06:19:00,
2013-12-05 00:24:00,63.9,61.2,30.03,SW,222,0.0,0.0,91,0.00,CLR,,0.00,WeatherDisplay:10.37,2013-12-05 06:24:00,
2013-12-05 00:29:00,63.9,61.2,30.03,SW,222,0.0,0.0,91,0.00,CLR,,0.00,WeatherDisplay:10.37,2013-12-05 06:29:00,
2013-12-05 00:34:00,63.7,61.0,30.03,SW,222,0.0,0.0,91,0.00,CLR,,0.00,WeatherDisplay:10.37,2013-12-05 06:34:00,
2013-12-05 00:39:00,63.9,61.2,30.03,SW,222,0.0,0.0,91,0.00,CLR,,0.00,WeatherDisplay:10.37,2013-12-05 06:39:00,
2013-12-05 00:44:00,63.7,61.0,30.03,SW,222,0.0,0.0,91,0.00,CLR,,0.00,WeatherDisplay:10.37,2013-12-05 06:44:00,
2013-12-05 00:50:00,63.7,61.0,30.04,SW,222,0.0,0.0,91,0.00,CLR,,0.00,WeatherDisplay:10.37,2013-12-05 06:50:00,
2013-12-05 00:54:00,63.7,61.0,30.04,SW,222,0.0,0.0,91,0.00,CLR,,0.00,WeatherDisplay:10.37,2013-12-05 06:54:00,
2013-12-05 01:00:00,63.7,61.3,30.03,SW,222,0.0,1.0,92,0.00,CLR,,0.00,WeatherDisplay:10.37,2013-12-05 07:00:00,
2013-12-05 01:05:00,63.9,61.5,30.04,SW,222,0.0,1.0,92,0.00,CLR,,0.00,WeatherDisplay:10.37,2013-12-05 07:05:00,
2013-12-05 01:10:00,63.9,61.2,30.04,SW,222,0.0,0.0,91,0.00,CLR,,0.00,WeatherDisplay:10.37,2013-12-05 07:10:00,
2013-12-05 01:15:00,64.0,61.6,30.03,SW,222,0.0,1.0,92,0.00,CLR,,0.00,WeatherDisplay:10.37,2013-12-05 07:15:00,
2013-12-05 01:20:00,64.0,61.6,30.03,SW,222,0.0,1.0,92,0.00,CLR,,0.00,WeatherDisplay:10.37,2013-12-05 07:20:00,
2013-12-05 01:25:00,64.0,61.3,30.03,SW,222,0.0,0.0,91,0.00,CLR,,0.00,WeatherDisplay:10.37,2013-12-05 07:25:00,
2013-12-05 01:30:00,63.9,61.2,30.02,SW,222,0.0,0.0,91,0.00,CLR,,0.00,WeatherDisplay:10.37,2013-12-05 07:30:00,
2013-12-05 01:35:00,63.9,61.5,30.02,SW,222,0.0,0.0,92,0.00,CLR,,0.00,WeatherDisplay:10.37,2013-12-05 07:35:00,
2013-12-05 01:40:00,64.0,61.6,30.02,SW,222,0.0,0.0,92,0.00,CLR,,0.00,WeatherDisplay:10.37,2013-12-05 07:40:00,
2013-12-05 01:45:00,64.0,61.6,30.02,SW,222,0.0,0.0,92,0.00,CLR,,0.00,WeatherDisplay:10.37,2013-12-05 07:45:00,
2013-12-05 01:50:00,64.0,61.6,30.02,SW,222,0.0,0.0,92,0.00,CLR,,0.00,WeatherDisplay:10.37,2013-12-05 07:50:00,
2013-12-05 01:55:00,64.0,61.6,30.02,SW,222,0.0,0.0,92,0.00,CLR,,0.00,WeatherDisplay:10.37,2013-12-05 07:55:00,
2013-12-05 02:00:00,64.0,61.6,30.02,SW,222,0.0,0.0,92,0.00,CLR,,0.00,WeatherDisplay:10.37,2013-12-05 08:00:00,
2013-12-05 02:05:00,64.0,61.6,30.02,SW,222,0.0,0.0,92,0.00,CLR,,0.00,WeatherDisplay:10.37,2013-12-05 08:05:00,
2013-12-05 02:10:00,63.9,61.5,30.01,SW,222,0.0,0.0,92,0.00,CLR,,0.00,WeatherDisplay:10.37,2013-12-05 08:10:00,
2013-12-05 02:15:00,63.9,61.5,30.02,SW,222,0.0,0.0,92,0.00,CLR,,0.00,WeatherDisplay:10.37,2013-12-05 08:15:00,
2013-12-05 02:20:00,63.9,61.5,30.02,SW,222,0.0,0.0,92,0.00,CLR,,0.00,WeatherDisplay:10.37,2013-12-05 08:20:00,
2013-12-05 02:25:00,63.7,61.3,30.02,SW,222,0.0,0.0,92,0.00,CLR,,0.00,WeatherDisplay:10.37,2013-12-05 08:25:00,
2013-12-05 02:30:00,63.5,61.1,30.02,SW,222,0.0,0.0,92,0.00,CLR,,0.00,WeatherDisplay:10.37,2013-12-05 08:30:00,
2013-12-05 02:35:00,63.5,61.1,30.03,SW,222,0.0,0.0,92,0.00,CLR,,0.00,WeatherDisplay:10.37,2013-12-05 08:35:00,
2013-12-05 02:40:00,63.4,61.0,30.03,SW,222,0.0,0.0,92,0.00,CLR,,0.00,WeatherDisplay:10.37,2013-12-05 08:40:00,
2013-12-05 02:45:00,63.4,61.0,30.03,SW,222,0.0,0.0,92,0.00,CLR,,0.00,WeatherDisplay:10.37,2013-12-05 08:45:00,
2013-12-05 02:50:00,63.4,61.0,30.03,SW,222,0.0,0.0,92,0.00,CLR,,0.00,WeatherDisplay:10.37,2013-12-05 08:50:00,
2013-12-05 02:55:00,63.2,60.8,30.03,SW,222,0.0,0.0,92,0.00,CLR,,0.00,WeatherDisplay:10.37,2013-12-05 08:55:00,
2013-12-05 03:00:00,63.2,61.1,30.03,SW,222,0.0,0.0,93,0.00,CLR,,0.00,WeatherDisplay:10.37,2013-12-05 09:00:00,
2013-12-05 03:05:00,63.2,61.1,30.03,SW,222,0.0,0.0,93,0.00,CLR,,0.00,WeatherDisplay:10.37,2013-12-05 09:05:00,
2013-12-05 03:10:00,63.2,61.1,30.03,SW,222,0.0,0.0,93,0.00,CLR,,0.00,WeatherDisplay:10.37,2013-12-05 09:10:00,
2013-12-05 03:15:00,63.2,61.1,30.03,SW,222,0.0,0.0,93,0.00,CLR,,0.00,WeatherDisplay:10.37,2013-12-05 09:15:00,
2013-12-05 03:20:00,63.1,61.0,30.03,SW,222,0.0,0.0,93,0.00,CLR,,0.00,WeatherDisplay:10.37,2013-12-05 09:20:00,
2013-12-05 03:25:00,63.1,61.0,30.03,SW,222,0.0,0.0,93,0.00,CLR,,0.00,WeatherDisplay:10.37,2013-12-05 09:25:00,
2013-12-05 03:30:00,63.1,61.0,30.03,SW,222,0.0,0.0,93,0.00,CLR,,0.00,WeatherDisplay:10.37,2013-12-05 09:30:00,
2013-12-05 03:35:00,63.1,61.0,30.03,SW,222,0.0,0.0,93,0.00,CLR,,0.00,WeatherDisplay:10.37,2013-12-05 09:35:00,
2013-12-05 03:40:00,63.1,61.0,30.03,SW,222,0.0,0.0,93,0.00,CLR,,0.00,WeatherDisplay:10.37,2013-12-05 09:40:00,
2013-12-05 03:45:00,63.1,61.0,30.03,SW,222,0.0,0.0,93,0.00,CLR,,0.00,WeatherDisplay:10.37,2013-12-05 09:45:00,
2013-12-05 03:50:00,63.1,61.0,30.03,SW,222,0.0,0.0,93,0.00,CLR,,0.00,WeatherDisplay:10.37,2013-12-05 09:50:00,
2013-12-05 03:55:00,63.1,61.3,30.03,SW,222,0.0,0.0,94,0.00,CLR,,0.00,WeatherDisplay:10.37,2013-12-05 09:55:00,
2013-12-05 04:00:00,63.1,61.3,30.03,SW,222,0.0,0.0,94,0.00,CLR,,0.00,WeatherDisplay:10.37,2013-12-05 10:00:00,
2013-12-05 04:05:00,63.1,61.3,30.03,SW,222,0.0,0.0,94,0.00,CLR,,0.00,WeatherDisplay:10.37,2013-12-05 10:05:00,
2013-12-05 04:10:00,63.1,61.3,30.03,SW,222,0.0,0.0,94,0.00,CLR,,0.00,WeatherDisplay:10.37,2013-12-05 10:10:00,
2013-12-05 04:15:00,63.1,61.3,30.04,SW,222,0.0,0.0,94,0.00,CLR,,0.00,WeatherDisplay:10.37,2013-12-05 10:15:00,
2013-12-05 04:20:00,63.1,61.3,30.04,SW,222,0.0,0.0,94,0.00,CLR,,0.00,WeatherDisplay:10.37,2013-12-05 10:20:00,
2013-12-05 04:25:00,63.1,61.3,30.04,SW,222,0.0,0.0,94,0.00,CLR,,0.00,WeatherDisplay:10.37,2013-12-05 10:25:00,
2013-12-05 04:30:00,63.1,61.3,30.04,SW,222,0.0,0.0,94,0.00,CLR,,0.00,WeatherDisplay:10.37,2013-12-05 10:30:00,
2013-12-05 04:35:00,63.1,61.3,30.04,SW,222,0.0,0.0,94,0.00,CLR,,0.00,WeatherDisplay:10.37,2013-12-05 10:35:00,
2013-12-05 04:40:00,62.9,61.1,30.04,SW,222,0.0,0.0,94,0.00,CLR,,0.00,WeatherDisplay:10.37,2013-12-05 10:40:00,
2013-12-05 04:45:00,62.9,61.1,30.04,SW,222,0.0,0.0,94,0.00,CLR,,0.00,WeatherDisplay:10.37,2013-12-05 10:45:00,
2013-12-05 04:50:00,62.9,61.1,30.04,SW,222,0.0,0.0,94,0.00,CLR,,0.00,WeatherDisplay:10.37,2013-12-05 10:50:00,
2013-12-05 04:55:00,62.7,60.9,30.05,SW,222,0.0,0.0,94,0.00,CLR,,0.00,WeatherDisplay:10.37,2013-12-05 10:55:00,
2013-12-05 05:00:00,62.9,61.1,30.05,SW,222,0.0,0.0,94,0.00,CLR,,0.00,WeatherDisplay:10.37,2013-12-05 11:00:00,
2013-12-05 05:05:00,62.9,61.1,30.05,SW,222,0.0,0.0,94,0.00,CLR,,0.00,WeatherDisplay:10.37,2013-12-05 11:05:00,
2013-12-05 05:10:00,62.9,61.1,30.05,SW,222,0.0,0.0,94,0.00,CLR,,0.00,WeatherDisplay:10.37,2013-12-05 11:10:00,
2013-12-05 05:15:00,62.9,61.1,30.05,SW,222,0.0,0.0,94,0.00,CLR,,0.00,WeatherDisplay:10.37,2013-12-05 11:15:00,
2013-12-05 05:20:00,62.9,61.1,30.05,SW,222,0.0,0.0,94,0.00,CLR,,0.00,WeatherDisplay:10.37,2013-12-05 11:20:00,
2013-12-05 05:25:00,62.9,61.1,30.06,SW,222,0.0,0.0,94,0.00,CLR,,0.00,WeatherDisplay:10.37,2013-12-05 11:25:00,
2013-12-05 05:30:00,62.9,61.1,30.06,SW,222,0.0,0.0,94,0.00,CLR,,0.00,WeatherDisplay:10.37,2013-12-05 11:30:00,
2013-12-05 05:35:00,63.1,61.3,30.06,SW,222,0.0,0.0,94,0.00,CLR,,0.00,WeatherDisplay:10.37,2013-12-05 11:35:00,
2013-12-05 05:40:00,62.9,61.1,30.06,SW,222,0.0,0.0,94,0.00,CLR,,0.00,WeatherDisplay:10.37,2013-12-05 11:40:00,
2013-12-05 05:45:00,62.9,61.1,30.06,SW,222,0.0,0.0,94,0.00,CLR,,0.00,WeatherDisplay:10.37,2013-12-05 11:45:00,
2013-12-05 05:50:00,62.9,61.1,30.05,SW,222,0.0,0.0,94,0.00,CLR,,0.00,WeatherDisplay:10.37,2013-12-05 11:50:00,
2013-12-05 05:55:00,62.9,61.1,30.06,SW,222,1.2,0.0,94,0.00,CLR,,0.00,WeatherDisplay:10.37,2013-12-05 11:55:00,
2013-12-05 06:00:00,62.7,60.9,30.07,SW,222,0.0,0.0,94,0.00,CLR,,0.00,WeatherDisplay:10.37,2013-12-05 12:00:00,
2013-12-05 06:05:00,62.7,60.9,30.06,SW,222,0.0,0.0,94,0.00,CLR,,0.00,WeatherDisplay:10.37,2013-12-05 12:05:00,
2013-12-05 06:10:00,62.6,60.8,30.06,SW,222,0.0,0.0,94,0.00,CLR,,0.00,WeatherDisplay:10.37,2013-12-05 12:10:00,
2013-12-05 06:15:00,62.6,61.1,30.05,SW,222,0.0,0.0,95,0.00,CLR,,0.00,WeatherDisplay:10.37,2013-12-05 12:15:00,
2013-12-05 06:20:00,62.6,61.1,30.05,SW,222,0.0,0.0,95,0.00,CLR,,0.00,WeatherDisplay:10.37,2013-12-05 12:20:00,
2013-12-05 06:25:00,62.6,61.1,30.06,SW,222,0.0,0.0,95,0.00,CLR,,0.00,WeatherDisplay:10.37,2013-12-05 12:25:00,
2013-12-05 06:30:00,62.6,61.1,30.05,SW,222,0.0,0.0,95,0.00,CLR,,0.00,WeatherDisplay:10.37,2013-12-05 12:30:00,
2013-12-05 06:35:00,62.4,60.9,30.06,SW,222,0.0,0.0,95,0.00,CLR,,0.00,WeatherDisplay:10.37,2013-12-05 12:35:00,
2013-12-05 06:40:00,62.4,60.9,30.06,SW,222,0.0,0.0,95,0.00,CLR,,0.00,WeatherDisplay:10.37,2013-12-05 12:40:00,
2013-12-05 06:45:00,62.4,60.9,30.06,SW,222,0.0,0.0,95,0.00,CLR,,0.00,WeatherDisplay:10.37,2013-12-05 12:45:00,
2013-12-05 06:50:00,62.4,60.9,30.06,SW,222,1.2,1.2,95,0.00,CLR,,0.00,WeatherDisplay:10.37,2013-12-05 12:50:00,
2013-12-05 06:55:00,62.4,60.9,30.07,SW,222,1.0,0.0,95,0.00,CLR,,0.00,WeatherDisplay:10.37,2013-12-05 12:55:00,
2013-12-05 07:00:00,62.6,61.1,30.07,SW,222,0.0,0.0,95,0.00,CLR,,0.00,WeatherDisplay:10.37,2013-12-05 13:00:00,
2013-12-05 07:05:00,62.7,61.2,30.07,SW,222,0.0,0.0,95,0.00,CLR,,0.00,WeatherDisplay:10.37,2013-12-05 13:05:00,
2013-12-05 07:10:00,62.7,61.2,30.08,SW,222,0.0,0.0,95,0.00,CLR,,0.00,WeatherDisplay:10.37,2013-12-05 13:10:00,
2013-12-05 07:15:00,62.7,61.2,30.08,SW,222,0.0,0.0,95,0.00,CLR,,0.00,WeatherDisplay:10.37,2013-12-05 13:15:00,
2013-12-05 07:20:00,62.7,61.2,30.08,SW,222,1.2,0.0,95,0.00,CLR,,0.00,WeatherDisplay:10.37,2013-12-05 13:20:00,
2013-12-05 07:25:00,62.9,61.4,30.08,SW,223,0.0,0.0,95,0.00,CLR,,0.00,WeatherDisplay:10.37,2013-12-05 13:25:00,
2013-12-05 07:30:00,62.9,61.4,30.08,SW,223,0.0,0.0,95,0.00,CLR,,0.00,WeatherDisplay:10.37,2013-12-05 13:30:00,
2013-12-05 07:35:00,63.1,61.6,30.08,SW,223,0.0,0.0,95,0.00,CLR,,0.00,WeatherDisplay:10.37,2013-12-05 13:35:00,
2013-12-05 07:40:00,63.4,62.2,30.08,SW,223,0.0,0.0,96,0.00,CLR,,0.00,WeatherDisplay:10.37,2013-12-05 13:40:00,
2013-12-05 07:45:00,63.5,62.3,30.08,SW,223,0.0,0.0,96,0.00,CLR,,0.00,WeatherDisplay:10.37,2013-12-05 13:45:00,
2013-12-05 07:50:00,63.9,62.7,30.08,SW,222,0.0,0.0,96,0.00,CLR,,0.00,WeatherDisplay:10.37,2013-12-05 13:50:00,
2013-12-05 07:55:00,64.0,62.8,30.08,SW,222,0.0,0.0,96,0.00,CLR,,0.00,WeatherDisplay:10.37,2013-12-05 13:55:00,
2013-12-05 08:00:00,64.3,63.1,30.08,SW,223,0.0,0.0,96,0.00,CLR,,0.00,WeatherDisplay:10.37,2013-12-05 14:00:00,
2013-12-05 08:05:00,64.7,63.5,30.08,SW,222,0.0,0.0,96,0.00,CLR,,0.00,WeatherDisplay:10.37,2013-12-05 14:05:00,
2013-12-05 08:10:00,64.8,63.6,30.08,SW,223,0.0,0.0,96,0.00,CLR,,0.00,WeatherDisplay:10.37,2013-12-05 14:10:00,
2013-12-05 08:15:00,65.0,63.8,30.09,SW,222,0.0,0.0,96,0.00,CLR,,0.00,WeatherDisplay:10.37,2013-12-05 14:15:00,
2013-12-05 08:20:00,65.2,64.0,30.09,SW,223,0.0,0.0,96,0.00,CLR,,0.00,WeatherDisplay:10.37,2013-12-05 14:20:00,
2013-12-05 08:25:00,65.3,64.1,30.09,SW,223,0.0,0.0,96,0.00,CLR,,0.00,WeatherDisplay:10.37,2013-12-05 14:25:00,
2013-12-05 08:30:00,65.6,64.4,30.08,SW,222,0.0,0.0,96,0.00,CLR,,0.00,WeatherDisplay:10.37,2013-12-05 14:30:00,
2013-12-05 08:35:00,65.6,64.4,30.08,SW,223,0.0,0.0,96,0.00,CLR,,0.00,WeatherDisplay:10.37,2013-12-05 14:35:00,
2013-12-05 08:40:00,65.8,64.3,30.08,SW,222,0.0,0.0,95,0.00,CLR,,0.00,WeatherDisplay:10.37,2013-12-05 14:40:00,
2013-12-05 08:45:00,65.8,64.3,30.08,SW,223,0.0,0.0,95,0.00,CLR,,0.00,WeatherDisplay:10.37,2013-12-05 14:45:00,
2013-12-05 08:50:00,65.8,64.3,30.08,SW,222,0.0,0.0,95,0.00,CLR,,0.00,WeatherDisplay:10.37,2013-12-05 14:50:00,
2013-12-05 08:55:00,66.0,64.5,30.08,SW,223,0.0,0.0,95,0.01,RA,,0.01,WeatherDisplay:10.37,2013-12-05 14:55:00,
2013-12-05 09:00:00,66.1,64.6,30.08,SW,223,0.0,0.0,95,0.01,RA,,0.01,WeatherDisplay:10.37,2013-12-05 15:00:00,
2013-12-05 09:05:00,66.4,64.9,30.08,SW,222,0.0,0.0,95,0.01,CLR,,0.01,WeatherDisplay:10.37,2013-12-05 15:05:00,
2013-12-05 09:10:00,66.8,65.3,30.08,SW,222,0.0,0.0,95,0.01,CLR,,0.01,WeatherDisplay:10.37,2013-12-05 15:10:00,
2013-12-05 09:15:00,67.1,65.6,30.08,SW,222,0.0,0.0,95,0.01,CLR,,0.01,WeatherDisplay:10.37,2013-12-05 15:15:00,
2013-12-05 09:20:00,67.3,65.8,30.08,SW,222,0.0,0.0,95,0.01,CLR,,0.01,WeatherDisplay:10.37,2013-12-05 15:20:00,
2013-12-05 09:25:00,67.4,65.6,30.08,SW,222,0.0,0.0,94,0.01,CLR,,0.01,WeatherDisplay:10.37,2013-12-05 15:25:00,
2013-12-05 09:30:00,67.4,65.3,30.09,SW,222,1.2,0.0,93,0.01,CLR,,0.01,WeatherDisplay:10.37,2013-12-05 15:30:00,
2013-12-05 09:35:00,67.6,65.5,30.09,SW,223,0.0,0.0,93,0.01,CLR,,0.01,WeatherDisplay:10.37,2013-12-05 15:35:00,
2013-12-05 09:40:00,67.9,65.5,30.08,SW,222,1.2,0.0,92,0.01,CLR,,0.01,WeatherDisplay:10.37,2013-12-05 15:40:00,
2013-12-05 09:45:00,68.1,65.4,30.08,West,262,1.2,0.0,91,0.01,CLR,,0.01,WeatherDisplay:10.37,2013-12-05 15:45:00,
2013-12-05 09:50:00,68.3,65.6,30.09,West,262,0.0,0.0,91,0.01,CLR,,0.01,WeatherDisplay:10.37,2013-12-05 15:50:00,
2013-12-05 09:55:00,68.3,65.3,30.09,West,261,0.0,0.0,90,0.00,CLR,,0.01,WeatherDisplay:10.37,2013-12-05 15:55:00,
2013-12-05 10:00:00,68.4,65.4,30.09,West,262,0.0,0.0,90,0.00,CLR,,0.01,WeatherDisplay:10.37,2013-12-05 16:00:00,
2013-12-05 10:05:00,68.4,65.4,30.09,West,262,0.0,0.0,90,0.00,CLR,,0.01,WeatherDisplay:10.37,2013-12-05 16:05:00,
2013-12-05 10:10:00,68.4,65.0,30.09,West,261,1.2,0.0,89,0.00,CLR,,0.01,WeatherDisplay:10.37,2013-12-05 16:10:00,
2013-12-05 10:15:00,68.6,65.2,30.08,West,262,1.2,0.0,89,0.00,CLR,,0.01,WeatherDisplay:10.37,2013-12-05 16:15:00,
2013-12-05 10:20:00,68.8,65.4,30.08,West,261,0.0,0.0,89,0.00,CLR,,0.01,WeatherDisplay:10.37,2013-12-05 16:20:00,
2013-12-05 10:25:00,68.9,65.5,30.08,West,262,0.0,0.0,89,0.00,CLR,,0.01,WeatherDisplay:10.37,2013-12-05 16:25:00,
2013-12-05 10:30:00,69.1,65.4,30.08,West,261,0.0,0.1,88,0.00,CLR,,0.01,WeatherDisplay:10.37,2013-12-05 16:30:00,
2013-12-05 10:35:00,69.3,65.6,30.08,West,261,1.2,1.2,88,0.00,CLR,,0.01,WeatherDisplay:10.37,2013-12-05 16:35:00,
2013-12-05 10:40:00,69.4,65.4,30.08,West,261,1.2,1.2,87,0.00,CLR,,0.01,WeatherDisplay:10.37,2013-12-05 16:40:00,
2013-12-05 10:45:00,69.6,65.2,30.08,SW,222,3.5,3.5,86,0.00,CLR,,0.01,WeatherDisplay:10.37,2013-12-05 16:45:00,
2013-12-05 10:50:00,69.8,65.4,30.08,WSW,240,0.0,0.1,86,0.00,CLR,,0.01,WeatherDisplay:10.37,2013-12-05 16:50:00,
2013-12-05 10:55:00,69.8,65.4,30.07,West,280,2.0,2.0,86,0.00,CLR,,0.01,WeatherDisplay:10.37,2013-12-05 16:55:00,
2013-12-05 11:00:00,69.9,65.2,30.06,SSE,163,3.5,3.5,85,0.00,CLR,,0.01,WeatherDisplay:10.37,2013-12-05 17:00:00,
2013-12-05 11:05:00,70.1,65.4,30.06,SSW,202,3.0,3.0,85,0.00,CLR,,0.01,WeatherDisplay:10.37,2013-12-05 17:05:00,
2013-12-05 11:10:00,70.3,65.2,30.06,SW,221,2.3,2.3,84,0.00,CLR,,0.01,WeatherDisplay:10.37,2013-12-05 17:10:00,
2013-12-05 11:15:00,70.6,65.5,30.06,SW,230,1.0,1.0,84,0.00,CLR,,0.01,WeatherDisplay:10.37,2013-12-05 17:15:00,
2013-12-05 11:20:00,70.9,65.5,30.05,SW,236,1.2,1.2,83,0.00,CLR,,0.01,WeatherDisplay:10.37,2013-12-05 17:20:00,
2013-12-05 11:25:00,71.1,65.7,30.05,SW,214,1.2,0.0,83,0.00,CLR,,0.01,WeatherDisplay:10.37,2013-12-05 17:25:00,
2013-12-05 11:31:00,71.6,65.8,30.05,WSW,241,3.5,3.5,82,0.00,CLR,,0.01,WeatherDisplay:10.37,2013-12-05 17:31:00,
2013-12-05 11:36:00,72.0,65.8,30.05,SSW,211,1.2,1.2,81,0.00,CLR,,0.01,WeatherDisplay:10.37,2013-12-05 17:36:00,
2013-12-05 11:41:00,72.3,65.8,30.04,WSW,240,2.3,2.3,80,0.00,CLR,,0.01,WeatherDisplay:10.37,2013-12-05 17:41:00,
2013-12-05 11:46:00,73.2,66.7,30.04,SW,227,8.1,8.1,80,0.00,CLR,,0.01,WeatherDisplay:10.37,2013-12-05 17:46:00,
2013-12-05 11:51:00,73.7,65.7,30.03,SW,216,5.0,5.0,76,0.00,CLR,,0.01,WeatherDisplay:10.37,2013-12-05 17:51:00,
2013-12-05 11:56:00,74.2,66.1,30.03,SW,229,3.5,3.5,76,0.00,CLR,,0.01,WeatherDisplay:10.37,2013-12-05 17:56:00,
2013-12-05 12:01:00,74.9,66.8,30.02,NNW,330,1.2,1.2,76,0.00,CLR,,0.01,WeatherDisplay:10.37,2013-12-05 18:01:00,
2013-12-05 12:06:00,75.3,66.0,30.02,West,264,3.5,3.5,73,0.00,CLR,,0.01,WeatherDisplay:10.37,2013-12-05 18:06:00,
2013-12-05 12:11:00,75.1,65.9,30.02,SW,225,3.5,3.5,73,0.00,CLR,,0.01,WeatherDisplay:10.37,2013-12-05 18:11:00,
2013-12-05 12:16:00,75.1,65.9,30.01,SSW,213,5.8,5.8,73,0.00,CLR,,0.01,WeatherDisplay:10.37,2013-12-05 18:16:00,
2013-12-05 12:21:00,75.1,66.2,30.01,WSW,257,0.0,0.0,74,0.00,CLR,,0.01,WeatherDisplay:10.37,2013-12-05 18:21:00,
2013-12-05 12:26:00,75.1,65.9,30.01,South,179,1.2,1.2,73,0.00,CLR,,0.01,WeatherDisplay:10.37,2013-12-05 18:26:00,
2013-12-05 12:31:00,75.1,65.9,30.00,SSW,213,1.2,1.2,73,0.00,CLR,,0.01,WeatherDisplay:10.37,2013-12-05 18:31:00,
2013-12-05 12:36:00,74.9,65.7,30.00,South,171,3.5,3.5,73,0.00,CLR,,0.01,WeatherDisplay:10.37,2013-12-05 18:36:00,
2013-12-05 12:41:00,75.1,65.9,30.00,South,187,1.0,0.0,73,0.00,CLR,,0.01,WeatherDisplay:10.37,2013-12-05 18:41:00,
2013-12-05 12:46:00,75.3,65.6,29.99,South,182,2.3,2.3,72,0.00,CLR,,0.01,WeatherDisplay:10.37,2013-12-05 18:46:00,
2013-12-05 12:51:00,75.1,65.5,29.99,SSW,200,2.3,2.3,72,0.00,CLR,,0.01,WeatherDisplay:10.37,2013-12-05 18:51:00,
2013-12-05 12:56:00,74.9,65.3,29.99,SW,232,2.0,2.0,72,0.00,CLR,,0.01,WeatherDisplay:10.37,2013-12-05 18:56:00,
2013-12-05 13:01:00,74.7,65.1,29.99,SW,227,3.5,3.5,72,0.00,CLR,,0.01,WeatherDisplay:10.37,2013-12-05 19:01:00,
2013-12-05 13:06:00,74.4,65.2,29.98,SW,215,3.5,3.5,73,0.00,CLR,,0.01,WeatherDisplay:10.37,2013-12-05 19:06:00,
2013-12-05 13:11:00,74.2,65.4,29.98,WSW,254,0.0,0.0,74,0.00,CLR,,0.01,WeatherDisplay:10.37,2013-12-05 19:11:00,
2013-12-05 13:16:00,74.4,65.6,29.98,SW,220,0.0,0.0,74,0.00,CLR,,0.01,WeatherDisplay:10.37,2013-12-05 19:16:00,
2013-12-05 13:21:00,74.7,65.5,29.98,SW,215,1.0,0.0,73,0.00,CLR,,0.01,WeatherDisplay:10.37,2013-12-05 19:21:00,
2013-12-05 13:26:00,74.9,65.7,29.98,SSW,213,1.2,1.2,73,0.00,CLR,,0.01,WeatherDisplay:10.37,2013-12-05 19:26:00,
2013-12-05 13:31:00,75.1,65.5,29.98,WSW,242,1.2,1.2,72,0.00,CLR,,0.01,WeatherDisplay:10.37,2013-12-05 19:31:00,
2013-12-05 13:36:00,75.3,65.6,29.98,SW,232,0.0,0.0,72,0.00,CLR,,0.01,WeatherDisplay:10.37,2013-12-05 19:36:00,
2013-12-05 13:41:00,75.3,66.0,29.98,SW,232,0.0,0.0,73,0.00,CLR,,0.01,WeatherDisplay:10.37,2013-12-05 19:41:00,
2013-12-05 13:46:00,75.3,65.2,29.97,SW,232,1.2,1.2,71,0.00,CLR,,0.01,WeatherDisplay:10.37,2013-12-05 19:46:00,
2013-12-05 13:51:00,75.3,65.2,29.97,SW,230,0.0,0.0,71,0.00,CLR,,0.01,WeatherDisplay:10.37,2013-12-05 19:51:00,
2013-12-05 13:56:00,75.3,65.2,29.97,SW,222,3.5,3.5,71,0.00,CLR,,0.01,WeatherDisplay:10.37,2013-12-05 19:56:00,
2013-12-05 14:01:00,75.1,65.1,29.97,WSW,250,0.0,0.0,71,0.00,CLR,,0.01,WeatherDisplay:10.37,2013-12-05 20:01:00,
2013-12-05 14:06:00,74.9,65.3,29.98,South,191,1.2,1.2,72,0.00,CLR,,0.01,WeatherDisplay:10.37,2013-12-05 20:06:00,
2013-12-05 14:11:00,74.7,65.5,29.97,SW,228,3.5,3.5,73,0.00,CLR,,0.01,WeatherDisplay:10.37,2013-12-05 20:11:00,
2013-12-05 14:16:00,74.6,65.4,29.98,SSW,197,1.2,1.2,73,0.00,CLR,,0.01,WeatherDisplay:10.37,2013-12-05 20:16:00,
2013-12-05 14:21:00,74.6,65.0,29.98,SSW,205,0.0,0.0,72,0.00,CLR,,0.01,WeatherDisplay:10.37,2013-12-05 20:21:00,
2013-12-05 14:26:00,74.7,65.1,29.98,WNW,284,1.2,1.2,72,0.00,CLR,,0.01,WeatherDisplay:10.37,2013-12-05 20:26:00,
2013-12-05 14:31:00,74.7,65.1,29.97,South,187,1.2,0.0,72,0.00,CLR,,0.01,WeatherDisplay:10.37,2013-12-05 20:31:00,
2013-12-05 14:36:00,74.6,65.0,29.97,SSW,192,0.0,0.0,72,0.00,CLR,,0.01,WeatherDisplay:10.37,2013-12-05 20:36:00,
2013-12-05 14:41:00,74.6,65.4,29.97,SSW,195,0.0,0.0,73,0.00,CLR,,0.01,WeatherDisplay:10.37,2013-12-05 20:41:00,
2013-12-05 14:46:00,74.4,65.2,29.97,SSE,161,3.5,3.5,73,0.00,CLR,,0.01,WeatherDisplay:10.37,2013-12-05 20:46:00,
2013-12-05 14:51:00,74.2,65.0,29.98,SSE,161,1.0,0.0,73,0.00,CLR,,0.01,WeatherDisplay:10.37,2013-12-05 20:51:00,
2013-12-05 14:56:00,74.2,65.0,29.98,SSE,161,0.0,0.0,73,0.00,CLR,,0.01,WeatherDisplay:10.37,2013-12-05 20:56:00,
2013-12-05 15:01:00,74.0,64.8,29.98,SSE,161,0.0,0.0,73,0.00,CLR,,0.01,WeatherDisplay:10.37,2013-12-05 21:01:00,
2013-12-05 15:06:00,73.9,65.1,29.98,SSE,161,0.0,0.0,74,0.00,CLR,,0.01,WeatherDisplay:10.37,2013-12-05 21:06:00,
2013-12-05 15:11:00,73.7,64.9,29.98,South,171,0.0,0.0,74,0.00,CLR,,0.01,WeatherDisplay:10.37,2013-12-05 21:11:00,
2013-12-05 15:16:00,73.5,64.7,29.98,South,171,1.2,1.2,74,0.00,CLR,,0.01,WeatherDisplay:10.37,2013-12-05 21:16:00,
2013-12-05 15:21:00,73.3,64.9,29.98,South,171,0.0,0.0,75,0.00,CLR,,0.01,WeatherDisplay:10.37,2013-12-05 21:21:00,
2013-12-05 15:26:00,73.2,64.8,29.98,South,171,0.0,0.0,75,0.00,CLR,,0.01,WeatherDisplay:10.37,2013-12-05 21:26:00,
2013-12-05 15:31:00,73.0,65.0,29.98,South,171,0.0,0.0,76,0.00,CLR,,0.01,WeatherDisplay:10.37,2013-12-05 21:31:00,
2013-12-05 15:36:00,72.8,65.9,29.99,South,171,0.0,0.0,79,0.00,CLR,,0.02,WeatherDisplay:10.37,2013-12-05 21:36:00,
2013-12-05 15:41:00,72.3,66.5,30.00,South,182,0.0,0.0,82,0.01,RA,,0.02,WeatherDisplay:10.37,2013-12-05 21:41:00,
2013-12-05 15:46:00,71.8,66.4,29.99,South,182,0.0,0.0,83,0.02,RA,,0.03,WeatherDisplay:10.37,2013-12-05 21:46:00,
2013-12-05 15:51:00,71.3,66.6,30.00,South,182,0.0,0.0,85,0.02,RA,,0.03,WeatherDisplay:10.37,2013-12-05 21:51:00,
2013-12-05 15:56:00,70.9,66.5,30.00,South,182,0.0,0.0,86,0.02,,,0.03,WeatherDisplay:10.37,2013-12-05 21:56:00,
2013-12-05 16:01:00,70.6,66.5,30.00,South,182,0.0,0.0,87,0.02,CLR,,0.03,WeatherDisplay:10.37,2013-12-05 22:01:00,
2013-12-05 16:06:00,70.3,66.6,29.99,South,182,0.0,0.0,88,0.02,CLR,,0.03,WeatherDisplay:10.37,2013-12-05 22:06:00,
2013-12-05 16:11:00,69.9,66.5,29.99,South,182,0.0,0.0,89,0.02,CLR,,0.03,WeatherDisplay:10.37,2013-12-05 22:11:00,
2013-12-05 16:16:00,69.8,66.4,29.99,South,182,0.0,0.0,89,0.02,CLR,,0.03,WeatherDisplay:10.37,2013-12-05 22:16:00,
2013-12-05 16:21:00,69.4,66.3,29.99,South,182,0.0,0.0,90,0.02,CLR,,0.03,WeatherDisplay:10.37,2013-12-05 22:21:00,
2013-12-05 16:26:00,69.3,66.2,29.99,South,182,0.0,0.0,90,0.02,CLR,,0.03,WeatherDisplay:10.37,2013-12-05 22:26:00,
2013-12-05 16:31:00,69.1,66.4,29.99,South,182,0.0,0.0,91,0.02,CLR,,0.03,WeatherDisplay:10.37,2013-12-05 22:31:00,
2013-12-05 16:36:00,68.9,66.2,29.99,South,182,0.0,0.0,91,0.02,CLR,,0.03,WeatherDisplay:10.37,2013-12-05 22:36:00,
2013-12-05 16:41:00,68.9,66.5,29.99,South,182,0.0,0.0,92,0.01,CLR,,0.03,WeatherDisplay:10.37,2013-12-05 22:41:00,
2013-12-05 16:46:00,68.8,66.4,29.99,South,182,0.0,0.0,92,0.00,CLR,,0.03,WeatherDisplay:10.37,2013-12-05 22:46:00,
2013-12-05 16:51:00,68.6,66.2,29.99,South,182,0.0,0.0,92,0.00,CLR,,0.03,WeatherDisplay:10.37,2013-12-05 22:51:00,
2013-12-05 16:56:00,68.4,66.0,29.99,South,182,0.0,0.0,92,0.00,CLR,,0.03,WeatherDisplay:10.37,2013-12-05 22:56:00,
2013-12-05 17:01:00,68.4,66.0,29.99,South,182,0.0,0.0,92,0.00,CLR,,0.03,WeatherDisplay:10.37,2013-12-05 23:01:00,
2013-12-05 17:06:00,68.3,66.2,29.99,South,182,0.0,0.0,93,0.00,CLR,,0.03,WeatherDisplay:10.37,2013-12-05 23:06:00,
2013-12-05 17:11:00,68.3,66.2,29.99,South,182,0.0,0.0,93,0.00,CLR,,0.03,WeatherDisplay:10.37,2013-12-05 23:11:00,
2013-12-05 17:16:00,68.1,66.0,29.99,South,182,0.0,0.0,93,0.00,CLR,,0.03,WeatherDisplay:10.37,2013-12-05 23:16:00,
2013-12-05 17:21:00,67.9,65.8,29.98,South,182,0.0,0.0,93,0.00,CLR,,0.03,WeatherDisplay:10.37,2013-12-05 23:21:00,
2013-12-05 17:26:00,67.8,65.7,29.98,South,182,0.0,0.0,93,0.00,CLR,,0.03,WeatherDisplay:10.37,2013-12-05 23:26:00,
2013-12-05 17:31:00,67.8,65.7,29.98,South,182,0.0,0.0,93,0.00,CLR,,0.03,WeatherDisplay:10.37,2013-12-05 23:31:00,
2013-12-05 17:36:00,67.6,65.5,29.98,South,182,0.0,0.0,93,0.00,CLR,,0.03,WeatherDisplay:10.37,2013-12-05 23:36:00,
2013-12-05 17:41:00,67.6,65.5,29.99,South,182,0.0,0.0,93,0.00,CLR,,0.03,WeatherDisplay:10.37,2013-12-05 23:41:00,
2013-12-05 17:46:00,67.4,65.6,29.99,South,182,0.0,0.0,94,0.00,CLR,,0.03,WeatherDisplay:10.37,2013-12-05 23:46:00,
2013-12-05 17:51:00,67.4,65.6,29.99,South,182,0.0,0.0,94,0.00,CLR,,0.03,WeatherDisplay:10.37,2013-12-05 23:51:00,
2013-12-05 17:56:00,67.4,65.6,29.99,South,182,0.0,0.0,94,0.00,CLR,,0.03,WeatherDisplay:10.37,2013-12-05 23:56:00,
2013-12-05 18:01:00,67.4,65.6,29.99,South,182,0.0,0.0,94,0.00,CLR,,0.03,WeatherDisplay:10.37,2013-12-06 00:01:00,
2013-12-05 18:06:00,67.4,65.6,30.00,South,182,0.0,0.0,94,0.00,CLR,,0.03,WeatherDisplay:10.37,2013-12-06 00:06:00,
2013-12-05 18:11:00,67.4,65.6,30.00,South,182,0.0,0.0,94,0.00,CLR,,0.03,WeatherDisplay:10.37,2013-12-06 00:11:00,
2013-12-05 18:16:00,67.4,65.6,29.99,South,182,0.0,0.0,94,0.00,CLR,,0.03,WeatherDisplay:10.37,2013-12-06 00:16:00,
2013-12-05 18:21:00,67.4,65.6,30.00,South,182,0.0,0.0,94,0.00,CLR,,0.03,WeatherDisplay:10.37,2013-12-06 00:21:00,
2013-12-05 18:26:00,67.4,65.6,30.00,South,182,0.0,0.0,94,0.00,CLR,,0.03,WeatherDisplay:10.37,2013-12-06 00:26:00,
2013-12-05 18:31:00,67.4,65.6,30.00,South,182,0.0,0.0,94,0.00,CLR,,0.03,WeatherDisplay:10.37,2013-12-06 00:31:00,
2013-12-05 18:36:00,67.4,65.6,30.00,South,182,0.0,0.0,94,0.00,CLR,,0.03,WeatherDisplay:10.37,2013-12-06 00:36:00,
2013-12-05 18:41:00,67.4,65.6,30.00,South,181,0.0,0.0,94,0.00,CLR,,0.03,WeatherDisplay:10.37,2013-12-06 00:41:00,
2013-12-05 18:46:00,67.4,65.6,30.00,South,182,0.0,0.0,94,0.00,CLR,,0.03,WeatherDisplay:10.37,2013-12-06 00:46:00,
2013-12-05 18:51:00,67.4,65.3,30.00,South,182,0.0,0.0,93,0.00,CLR,,0.03,WeatherDisplay:10.37,2013-12-06 00:51:00,
2013-12-05 18:56:00,67.4,65.3,30.00,South,182,0.0,0.0,93,0.00,CLR,,0.03,WeatherDisplay:10.37,2013-12-06 00:56:00,
2013-12-05 19:01:00,67.4,65.3,30.00,South,182,0.0,0.0,93,0.00,CLR,,0.03,WeatherDisplay:10.37,2013-12-06 01:01:00,
2013-12-05 19:06:00,67.4,65.3,30.00,South,182,0.0,0.0,93,0.00,CLR,,0.03,WeatherDisplay:10.37,2013-12-06 01:06:00,
2013-12-05 19:11:00,67.3,65.2,30.00,South,182,0.0,0.0,93,0.00,CLR,,0.03,WeatherDisplay:10.37,2013-12-06 01:11:00,
2013-12-05 19:16:00,67.3,64.9,30.00,South,182,0.0,0.0,92,0.00,CLR,,0.03,WeatherDisplay:10.37,2013-12-06 01:16:00,
2013-12-05 19:21:00,67.1,65.0,30.00,South,182,0.0,0.0,93,0.00,CLR,,0.03,WeatherDisplay:10.37,2013-12-06 01:21:00,
2013-12-05 19:26:00,67.1,65.0,30.00,South,182,0.0,0.0,93,0.00,CLR,,0.03,WeatherDisplay:10.37,2013-12-06 01:26:00,
2013-12-05 19:31:00,66.9,64.8,30.00,South,182,0.0,0.0,93,0.00,CLR,,0.03,WeatherDisplay:10.37,2013-12-06 01:31:00,
2013-12-05 19:36:00,66.9,64.8,30.00,South,182,0.0,0.0,93,0.00,CLR,,0.03,WeatherDisplay:10.37,2013-12-06 01:36:00,
2013-12-05 19:41:00,66.9,64.8,30.00,South,182,0.0,0.0,93,0.00,CLR,,0.03,WeatherDisplay:10.37,2013-12-06 01:41:00,
2013-12-05 19:46:00,66.8,64.7,30.00,South,182,0.0,0.0,93,0.00,CLR,,0.03,WeatherDisplay:10.37,2013-12-06 01:46:00,
2013-12-05 19:51:00,66.8,64.7,30.00,South,182,0.0,0.0,93,0.00,CLR,,0.03,WeatherDisplay:10.37,2013-12-06 01:51:00,
2013-12-05 19:56:00,66.8,64.7,30.00,South,182,0.0,0.0,93,0.00,CLR,,0.03,WeatherDisplay:10.37,2013-12-06 01:56:00,
2013-12-05 20:01:00,66.8,64.7,29.99,South,182,0.0,0.0,93,0.00,CLR,,0.03,WeatherDisplay:10.37,2013-12-06 02:01:00,
2013-12-05 20:06:00,66.8,65.0,29.99,South,182,0.0,0.0,94,0.00,CLR,,0.03,WeatherDisplay:10.37,2013-12-06 02:06:00,
2013-12-05 20:11:00,66.6,64.8,29.99,South,182,0.0,0.0,94,0.00,CLR,,0.03,WeatherDisplay:10.37,2013-12-06 02:11:00,
2013-12-05 20:16:00,66.6,64.8,29.99,South,182,0.0,0.0,94,0.00,CLR,,0.03,WeatherDisplay:10.37,2013-12-06 02:16:00,
2013-12-05 20:21:00,66.6,64.8,29.99,South,182,0.0,0.0,94,0.00,CLR,,0.03,WeatherDisplay:10.37,2013-12-06 02:21:00,
2013-12-05 20:26:00,66.6,64.8,29.99,South,182,0.0,0.0,94,0.00,CLR,,0.03,WeatherDisplay:10.37,2013-12-06 02:26:00,
2013-12-05 20:31:00,66.4,64.6,29.99,South,182,0.0,0.0,94,0.00,CLR,,0.03,WeatherDisplay:10.37,2013-12-06 02:31:00,
2013-12-05 20:36:00,66.4,64.6,29.99,South,182,0.0,0.0,94,0.00,CLR,,0.03,WeatherDisplay:10.37,2013-12-06 02:36:00,
2013-12-05 20:41:00,66.4,64.6,29.99,South,182,0.0,0.0,94,0.00,CLR,,0.03,WeatherDisplay:10.37,2013-12-06 02:41:00,
2013-12-05 20:46:00,66.4,64.6,29.99,South,182,0.0,0.0,94,0.00,CLR,,0.03,WeatherDisplay:10.37,2013-12-06 02:46:00,
2013-12-05 20:51:00,66.4,64.6,29.99,South,182,0.0,0.0,94,0.00,CLR,,0.03,WeatherDisplay:10.37,2013-12-06 02:51:00,
2013-12-05 20:56:00,66.4,64.6,30.00,South,182,0.0,0.0,94,0.00,CLR,,0.03,WeatherDisplay:10.37,2013-12-06 02:56:00,
2013-12-05 21:01:00,66.4,64.6,30.00,South,182,0.0,0.0,94,0.00,CLR,,0.03,WeatherDisplay:10.37,2013-12-06 03:01:00,
2013-12-05 21:06:00,66.6,64.8,30.00,South,182,0.0,0.0,94,0.00,CLR,,0.03,WeatherDisplay:10.37,2013-12-06 03:06:00,
2013-12-05 21:11:00,66.6,64.8,30.00,South,182,0.0,0.0,94,0.00,CLR,,0.04,WeatherDisplay:10.37,2013-12-06 03:11:00,
2013-12-05 21:16:00,66.8,65.0,30.00,South,182,0.0,0.0,94,0.03,RA,,0.06,WeatherDisplay:10.37,2013-12-06 03:16:00,
2013-12-05 21:21:00,66.9,65.1,30.01,South,182,0.0,0.0,94,0.03,RA,,0.06,WeatherDisplay:10.37,2013-12-06 03:21:00,
2013-12-05 21:26:00,66.9,65.1,30.01,South,169,0.0,0.0,94,0.03,CLR,,0.06,WeatherDisplay:10.37,2013-12-06 03:26:00,
2013-12-05 21:31:00,66.3,63.9,30.01,NE,34,3.5,3.5,92,0.03,CLR,,0.06,WeatherDisplay:10.37,2013-12-06 03:31:00,
2013-12-05 21:36:00,65.0,61.7,30.02,NNE,22,3.5,3.5,89,0.03,CLR,,0.06,WeatherDisplay:10.37,2013-12-06 03:36:00,
2013-12-05 21:41:00,63.5,59.6,30.02,NNE,15,4.6,4.6,87,0.03,CLR,,0.06,WeatherDisplay:10.37,2013-12-06 03:41:00,
2013-12-05 21:46:00,61.8,57.2,30.02,NNE,16,3.5,3.5,85,0.03,CLR,,0.06,WeatherDisplay:10.37,2013-12-06 03:46:00,
2013-12-05 21:51:00,60.5,56.3,30.03,North,5,3.5,3.5,86,0.03,CLR,,0.06,WeatherDisplay:10.37,2013-12-06 03:51:00,
2013-12-05 21:56:00,59.6,55.4,30.03,NNE,18,5.8,5.8,86,0.03,CLR,,0.06,WeatherDisplay:10.37,2013-12-06 03:56:00,
2013-12-05 22:01:00,58.9,55.0,30.04,NNE,26,3.5,3.5,87,0.03,CLR,,0.06,WeatherDisplay:10.37,2013-12-06 04:01:00,
2013-12-05 22:06:00,58.4,54.9,30.04,North,349,4.6,4.6,88,0.03,CLR,,0.06,WeatherDisplay:10.37,2013-12-06 04:06:00,
2013-12-05 22:11:00,58.3,54.8,30.04,North,355,1.2,0.0,88,0.03,CLR,,0.06,WeatherDisplay:10.37,2013-12-06 04:11:00,
2013-12-05 22:16:00,58.1,54.9,30.04,North,5,3.5,3.5,89,0.00,CLR,,0.06,WeatherDisplay:10.37,2013-12-06 04:16:00,
2013-12-05 22:21:00,58.0,54.5,30.04,North,5,3.5,3.5,88,0.00,CLR,,0.06,WeatherDisplay:10.37,2013-12-06 04:21:00,
2013-12-05 22:26:00,58.0,54.8,30.04,North,5,0.0,0.0,89,0.00,CLR,,0.06,WeatherDisplay:10.37,2013-12-06 04:26:00,
2013-12-05 22:31:00,58.0,54.8,30.04,North,5,0.0,0.0,89,0.00,CLR,,0.06,WeatherDisplay:10.37,2013-12-06 04:31:00,
2013-12-05 22:36:00,58.0,55.1,30.04,North,5,3.5,3.5,90,0.00,CLR,,0.06,WeatherDisplay:10.37,2013-12-06 04:36:00,
2013-12-05 22:41:00,58.0,54.8,30.05,North,5,0.0,0.0,89,0.00,CLR,,0.06,WeatherDisplay:10.37,2013-12-06 04:41:00,
2013-12-05 22:46:00,57.8,54.3,30.05,NNE,21,0.0,0.0,88,0.00,CLR,,0.06,WeatherDisplay:10.37,2013-12-06 04:46:00,
2013-12-05 22:51:00,57.6,54.1,30.05,NNE,21,0.0,0.0,88,0.00,CLR,,0.06,WeatherDisplay:10.37,2013-12-06 04:51:00,
2013-12-05 22:56:00,57.6,54.4,30.05,NNE,21,0.0,0.0,89,0.00,CLR,,0.06,WeatherDisplay:10.37,2013-12-06 04:56:00,
2013-12-05 23:01:00,57.5,54.3,30.05,NNE,21,1.0,0.0,89,0.00,CLR,,0.06,WeatherDisplay:10.37,2013-12-06 05:01:00,
2013-12-05 23:02:00,57.5,54.3,30.05,NNE,21,2.0,2.0,89,0.00,CLR,,0.06,WeatherDisplay:10.37,2013-12-06 05:02:00,
2013-12-05 23:04:00,57.3,53.8,30.05,NNE,22,3.5,3.5,88,0.00,CLR,,0.06,WeatherDisplay:10.37,2013-12-06 05:04:00,
2013-12-05 23:09:00,56.9,52.8,30.05,NNE,28,2.3,2.3,86,0.00,CLR,,0.06,WeatherDisplay:10.37,2013-12-06 05:09:00,
2013-12-05 23:14:00,56.6,52.8,30.05,NNE,28,0.0,0.0,87,0.00,CLR,,0.06,WeatherDisplay:10.37,2013-12-06 05:14:00,
2013-12-05 23:19:00,56.5,53.0,30.05,NNE,28,0.0,0.0,88,0.00,CLR,,0.06,WeatherDisplay:10.37,2013-12-06 05:19:00,
2013-12-05 23:24:00,56.5,53.3,30.05,NNE,28,0.0,0.0,89,0.00,CLR,,0.06,WeatherDisplay:10.37,2013-12-06 05:24:00,
2013-12-05 23:29:00,56.5,53.3,30.05,NNE,28,0.0,0.0,89,0.00,CLR,,0.06,WeatherDisplay:10.37,2013-12-06 05:29:00,
2013-12-05 23:34:00,56.5,53.3,30.05,NNE,28,0.0,0.0,89,0.00,CLR,,0.06,WeatherDisplay:10.37,2013-12-06 05:34:00,
2013-12-05 23:39:00,56.6,53.7,30.05,NNE,28,0.0,0.0,90,0.00,CLR,,0.06,WeatherDisplay:10.37,2013-12-06 05:39:00,
2013-12-05 23:44:00,56.6,53.7,30.05,NNE,28,0.0,0.0,90,0.00,CLR,,0.06,WeatherDisplay:10.37,2013-12-06 05:44:00,
2013-12-05 23:49:00,56.5,53.0,30.05,NNE,28,2.3,2.3,88,0.00,CLR,,0.06,WeatherDisplay:10.37,2013-12-06 05:49:00,
2013-12-05 23:54:00,56.3,52.8,30.05,NNE,28,0.0,0.0,88,0.00,CLR,,0.06,WeatherDisplay:10.37,2013-12-06 05:54:00,
2013-12-05 23:59:00,56.2,52.7,30.05,NNE,28,0.0,0.0,88,0.00,CLR,,0.06,WeatherDisplay:10.37,2013-12-06 05:59:00,